FW3705 Weather Reports


Display with metric or nautical units.
time (UTC)temp
F
wind
direction
speed
MPH
gust
MPH
rain 1hr
in
rain 24hr
in
rain mn
in
humidity
%
barometer
mb
20260507100007 49 298 0.0 0.0 0.00 0.00 0.00 69 1011.1
20260507094504 49 286 0.0 2.0 0.00 0.00 0.00 68 1010.9
20260507093002 50 286 0.0 1.0 0.00 0.00 0.00 68 1011.0
20260507091600 50 284 0.0 1.0 0.00 0.00 0.00 67 1011.1
20260507084601 51 291 0.0 0.0 0.00 0.00 0.00 67 1011.0
20260507083056 51 291 0.0 0.0 0.00 0.00 0.00 66 1010.7
20260507081555 52 291 0.0 0.0 0.00 0.00 0.00 65 1010.8
20260507080111 52 287 0.0 4.0 0.00 0.00 0.00 64 1010.8
20260507074551 53 287 1.0 10.0 0.00 0.00 0.00 62 1010.9
20260507073052 53 136 0.0 3.0 0.00 0.00 0.00 63 1010.0
20260507071546 53 286 0.0 0.0 0.00 0.00 0.00 65 1010.1
20260507070045 54 286 0.0 3.0 0.00 0.00 0.00 64 1010.0
20260507064544 54 288 0.0 1.0 0.00 0.00 0.00 64 1010.2
20260507063041 55 288 0.0 2.0 0.00 0.00 0.00 65 1010.1
20260507061539 55 289 0.0 2.0 0.00 0.00 0.00 66 1010.1
20260507060042 55 289 0.0 3.0 0.00 0.00 0.00 67 1010.1
20260507054538 56 298 0.0 4.0 0.00 0.00 0.00 69 1010.3
20260507053033 57 337 0.0 0.0 0.00 0.00 0.00 69 1010.2
20260507051532 57 341 0.0 2.0 0.00 0.00 0.00 69 1010.1
20260507050029 58 217 0.0 2.0 0.00 0.00 0.00 72 1010.2
20260507044524 59 215 1.0 4.0 0.00 0.00 0.00 74 1010.1
20260507043025 59 217 0.0 3.0 0.00 0.00 0.00 74 1010.0
20260507041522 59 213 0.0 1.0 0.00 0.00 0.00 74 1010.1
20260507040019 59 223 0.0 2.0 0.00 0.00 0.00 74 1010.3
20260507034520 59 220 0.0 3.0 0.00 0.00 0.00 74 1010.6
20260507033021 59 251 0.0 3.0 0.00 0.00 0.00 73 1010.0
20260507031518 59 271 0.0 3.0 0.00 0.00 0.00 73 1009.5
20260507030019 59 259 0.0 6.0 0.00 0.00 0.00 73 1009.3
20260507024516 59 192 0.0 5.0 0.00 0.00 0.00 73 1009.5
20260507023014 59 204 0.0 3.0 0.00 0.00 0.00 73 1009.6
20260507021514 59 251 0.0 3.0 0.00 0.00 0.00 74 1009.7
20260507020013 58 241 1.0 7.0 0.00 0.00 0.00 74 1009.7
20260507014515 58 208 0.0 4.0 0.00 0.00 0.00 74 1009.9
20260507013020 58 223 0.0 3.0 0.00 0.00 0.00 74 1010.1
20260507011513 58 219 0.0 5.0 0.00 0.00 0.00 74 1010.1
20260507010013 57 198 0.0 3.0 0.00 0.00 0.00 74 1010.2
20260507004509 57 260 0.0 2.0 0.00 0.00 0.00 74 1010.2
20260507003008 57 169 0.0 4.0 0.00 0.00 0.00 74 1010.2
20260507001510 57 119 0.0 6.0 0.00 0.00 0.00 73 1010.0
20260507000007 57 202 0.0 3.0 0.00 0.00 0.00 73 1010.0
20260506234506 57 203 0.0 3.0 0.00 0.00 0.00 72 1010.0
20260506233008 57 121 0.0 7.0 0.00 0.00 0.00 71 1010.0
20260506231504 58 164 0.0 6.0 0.00 0.00 0.00 70 1010.2
20260506230001 58 122 0.0 4.0 0.00 0.00 0.00 70 1010.1
20260506224600 58 197 0.0 10.0 0.00 0.00 0.00 69 1010.2
20260506223057 59 264 0.0 5.0 0.00 0.00 0.00 69 1010.3
20260506221606 60 200 0.0 6.0 0.00 0.00 0.00 68 1010.4
20260506220054 60 113 0.0 4.0 0.00 0.00 0.00 67 1010.7
20260506214555 61 188 0.0 4.0 0.00 0.00 0.00 66 1010.8
20260506213110 61 227 0.0 4.0 0.00 0.00 0.00 66 1010.9
20260506211550 61 229 0.0 1.0 0.00 0.00 0.00 66 1011.0
20260506210050 61 121 0.0 8.0 0.00 0.00 0.00 65 1011.1
20260506204549 61 107 0.0 4.0 0.00 0.00 0.00 63 1011.1
20260506203048 62 102 0.0 9.0 0.00 0.00 0.00 63 1011.2
20260506201548 62 110 0.0 8.0 0.00 0.00 0.00 62 1011.0
20260506200047 63 11 0.0 12.0 0.00 0.00 0.00 62 1011.0
20260506194548 63 163 0.0 5.0 0.00 0.00 0.00 60 1011.2
20260506193044 64 157 0.0 4.0 0.00 0.00 0.00 57 1011.4
20260506191544 65 114 1.0 7.0 0.00 0.00 0.00 54 1011.2
20260506190044 66 109 0.0 6.0 0.00 0.00 0.00 52 1011.2
20260506184550 66 184 1.0 9.0 0.00 0.00 0.00 52 1011.1
20260506183053 67 154 0.0 10.0 0.00 0.00 0.00 50 1011.3
20260506181608 67 111 0.0 10.0 0.00 0.00 0.00 50 1011.3
20260506180038 68 231 0.0 9.0 0.00 0.00 0.00 49 1011.5
20260506174536 68 153 0.0 8.0 0.00 0.00 0.00 49 1011.7
20260506173053 68 238 1.0 9.0 0.00 0.00 0.00 49 1011.9
20260506171534 67 221 0.0 10.0 0.00 0.00 0.00 51 1011.8
20260506170038 67 126 0.0 6.0 0.00 0.00 0.00 50 1012.1
20260506164537 68 159 0.0 4.0 0.00 0.00 0.00 50 1012.1
20260506163029 68 241 0.0 3.0 0.00 0.00 0.00 49 1012.3
20260506161529 68 195 0.0 5.0 0.00 0.00 0.00 49 1012.4
20260506160026 69 99 0.0 6.0 0.00 0.00 0.00 47 1012.8
20260506154525 70 288 0.0 7.0 0.00 0.00 0.00 46 1012.9
20260506153024 70 103 0.0 4.0 0.00 0.00 0.00 47 1013.1
20260506151521 69 98 0.0 7.0 0.00 0.00 0.00 49 1013.3
20260506150018 68 92 0.0 6.0 0.00 0.00 0.00 50 1013.6
20260506144520 68 108 0.0 7.0 0.00 0.00 0.00 51 1013.3
20260506143015 67 88 1.0 6.0 0.00 0.00 0.00 51 1013.3
20260506141510 66 104 0.0 8.0 0.00 0.00 0.00 54 1013.4
20260506140108 65 203 0.0 6.0 0.00 0.00 0.00 56 1013.5
20260506134507 64 269 0.0 7.0 0.00 0.00 0.00 56 1013.9
20260506133006 64 74 0.0 7.0 0.00 0.00 0.00 56 1014.0
20260506131506 64 198 1.0 11.0 0.00 0.00 0.00 56 1013.8
20260506130005 64 172 0.0 7.0 0.00 0.00 0.00 58 1013.9
20260506124504 62 121 0.0 4.0 0.00 0.00 0.00 61 1014.0
20260506123003 61 127 0.0 7.0 0.00 0.00 0.00 61 1013.9
20260506121502 60 181 0.0 4.0 0.00 0.00 0.00 62 1013.7
20260506114502 60 67 0.0 6.0 0.00 0.00 0.00 63 1014.4
20260506113059 60 207 0.0 6.0 0.00 0.00 0.00 63 1014.2
20260506111559 60 211 0.0 4.0 0.00 0.00 0.00 63 1014.2
20260506110059 59 113 0.0 8.0 0.00 0.00 0.00 63 1014.0
20260506104601 59 202 0.0 4.0 0.00 0.00 0.00 63 1014.0
20260506103057 60 234 0.0 4.0 0.00 0.00 0.00 62 1014.2
20260506101555 60 157 0.0 3.0 0.00 0.00 0.00 62 1014.2